Location: Alto Pass Reservoir
(37.5801°N, 89.3084°W)
Time: 12:13:20
(UTC+00:00)

NEOSSAT - Pass Details

Date: 04 October 2022
Orbit: 767 x 784 km, 98.4° (Epoch: 26 November)

Event Time Altitude Azimuth Distance (km) Brightness Sun altitude
Rises 00:00:27 0° 24° (NNE) 3,280 ? -5.4°
Reaches altitude 10° 00:03:02 10° 35° (NE) 2,348 ? -5.9°
Maximum altitude 00:07:36 31° 96° (E) 1,355 ? -6.9°
Drops below altitude 10° 00:12:07 10° 158° (SSE) 2,331 ? -7.7°
Sets 00:14:40 0° 169° (SSE) 3,253 ? -8.3°
